Location: Newark
(50.1751°N, 5.6239°W)
Time: 04:46:57
(UTC+00:00)

ISS - Pass Details

Date: 25 September 2021
Orbit: 417 x 423 km, 51.6° (Epoch: 20 October)

Event Time Altitude Azimuth Distance (km) Brightness Sun altitude
Rises 21:17:00 0° 286° (WNW) 2,368 1.1 -28.4°
Reaches altitude 10° 21:19:06 10° 285° (WNW) 1,504 -0.2 -28.6°
Enters shadow 21:19:55 16° 283° (WNW) 1,179 -0.8 -28.7°
